Cheyenne, WY

7:34 PM MST on February 21, 2017 (GMT -0700)
Cheyenne

Weather History for KCYS - March, 2012

Change the Weather History Date:

Wednesday, March 21, 2012

  Actual Average Record
Temperature  
Mean Temperature 42 °F 37 °F  
Max Temperature 58 °F 49 °F 72 °F (1995)
Min Temperature 26 °F 26 °F -8 °F (1913)
Degree Days  
Heating Degree Days 23 28  
Month to date heating degree days 502 632  
Since 1 July heating degree days 5484 5651  
Cooling Degree Days 0 0  
Month to date cooling degree days 0 0  
Year to date cooling degree days 0 0  
Moisture  
Dew Point 15 °F    
Average Humidity 37    
Maximum Humidity 54    
Minimum Humidity 19    
Precipitation  
Precipitation 0.00 in 0.04 in 0.71 in (1884)
Month to date precipitation T 0.66  
Year to date precipitation 1.03 1.46  
Snow  
Snow 0.00 in 0.40 in 7.10 in (1884)
Month to date snowfall T 7.4  
Since 1 July snowfall 51.1 43.9  
Snow Depth 0.00 in    
Sea Level Pressure  
Sea Level Pressure 29.97 in    
Wind  
Wind Speed 12 mph (NW)    
Max Wind Speed 23 mph    
Max Gust Speed 37 mph    
Visibility 10 miles    
Events      
T = Trace of Precipitation, MM = Missing Value Source: NWS Daily Summary

Daily Weather History Graph

Daily Weather History Graph

Search for Another Location

Airport or City:

Trip Planner

Search our weather history database for the weather conditions in past years. The results will help you decide how hot, cold, wet, or windy it might be!

Date:

Astronomy

Mar. 21, 2012 Rise Set
Actual Time 6:59 AM MDT 7:13 PM MDT
Civil Twilight 6:32 AM MDT 7:40 PM MDT
Nautical Twilight 6:00 AM MDT 8:12 PM MDT
Astronomical Twilight 5:27 AM MDT 8:45 PM MDT
Moon 6:12 AM MDT (3/21) 6:42 PM MDT (3/21)
Length of Visible Light 13h 08m
Length of Day
12h 13m
Waning Crescent, 1% of the Moon is Illuminated
Mar 21
Waning Crescent
Mar 22
New
Mar 30
First Quarter
Apr 6
Full
Apr 13
Last Quarter

Hourly Weather History & Observations

Time (MDT) Temp. Windchill Dew Point Humidity Pressure Visibility Wind Dir Wind Speed Gust Speed Precip Events Conditions
12:53 AM 30.0 °F 22.4 °F 7.0 °F 38% 29.99 in 10.0 mi WSW 8.1 mph - N/A   Clear
1:53 AM 28.0 °F 19.3 °F 7.0 °F 41% 29.96 in 10.0 mi SW 9.2 mph - N/A   Clear
2:53 AM 27.0 °F 18.7 °F 10.0 °F 49% 29.95 in 10.0 mi West 8.1 mph - N/A   Clear
3:53 AM 27.0 °F 20.5 °F 10.9 °F 51% 29.95 in 10.0 mi West 5.8 mph - N/A   Clear
4:53 AM 27.0 °F 16.7 °F 10.9 °F 51% 29.95 in 10.0 mi West 11.5 mph - N/A   Clear
5:53 AM 30.0 °F 20.5 °F 14.0 °F 51% 29.94 in 10.0 mi WNW 11.5 mph - N/A   Clear
6:53 AM 32.0 °F 22.5 °F 18.0 °F 56% 29.97 in 10.0 mi WNW 12.7 mph - N/A   Clear
7:53 AM 35.1 °F 25.5 °F 19.9 °F 54% 30.01 in 10.0 mi NW 15.0 mph - N/A   Clear
8:53 AM 41.0 °F 33.9 °F 19.9 °F 43% 30.00 in 10.0 mi NW 12.7 mph 21.9 mph N/A   Clear
9:53 AM 46.0 °F 39.6 °F 19.0 °F 34% 30.01 in 10.0 mi NW 15.0 mph 20.7 mph N/A   Clear
10:53 AM 50.0 °F - 19.0 °F 29% 29.99 in 10.0 mi NW 16.1 mph 24.2 mph N/A   Clear
11:53 AM 51.1 °F - 19.0 °F 28% 29.97 in 10.0 mi North 17.3 mph 29.9 mph N/A   Clear
12:53 PM 53.1 °F - 18.0 °F 25% 29.96 in 10.0 mi NNW 16.1 mph 31.1 mph N/A   Clear
1:53 PM 55.9 °F - 17.1 °F 22% 29.94 in 10.0 mi NNW 17.3 mph 24.2 mph N/A   Clear
2:53 PM 55.9 °F - 16.0 °F 21% 29.93 in 10.0 mi NNW 15.0 mph 27.6 mph N/A   Clear
3:53 PM 57.9 °F - 16.0 °F 19% 29.93 in 10.0 mi North 16.1 mph 23.0 mph N/A   Clear
4:53 PM 57.0 °F - 16.0 °F 20% 29.93 in 10.0 mi North 19.6 mph 25.3 mph N/A   Clear
5:53 PM 55.0 °F - 17.1 °F 23% 29.93 in 10.0 mi North 12.7 mph - N/A   Clear
6:53 PM 53.1 °F - 17.1 °F 24% 29.95 in 10.0 mi NNE 9.2 mph - N/A   Clear
7:53 PM 48.0 °F - 14.0 °F 26% 29.97 in 10.0 mi NNE 9.2 mph - N/A   Clear
8:53 PM 44.1 °F 40.1 °F 15.1 °F 31% 29.98 in 10.0 mi North 6.9 mph - N/A   Clear
9:53 PM 42.1 °F 38.4 °F 12.9 °F 31% 29.98 in 10.0 mi NNE 5.8 mph - N/A   Clear
10:53 PM 35.1 °F 29.3 °F 16.0 °F 46% 30.00 in 10.0 mi West 6.9 mph - N/A   Clear
11:53 PM 34.0 °F 25.0 °F 17.1 °F 50% 29.99 in 10.0 mi West 12.7 mph - N/A   Clear